Weather History for HEGN - March, 2014

Change the Weather History Date:

Tuesday, March 4, 2014

  Actual Average Record
Temperature  
Mean Temperature 76 °F -  
Max Temperature 89 °F 76 °F 89 °F (2014)
Min Temperature 62 °F 59 °F 48 °F (2012)
Cooling Degree Days 10    
Growing Degree Days 26 (Base 50)    
Moisture  
Dew Point 45 °F    
Average Humidity 39    
Maximum Humidity 90    
Minimum Humidity 8    
Precipitation  
Precipitation 0.00 in - - ()
Sea Level Pressure  
Sea Level Pressure 29.85 in    
Wind  
Wind Speed 7 mph ()    
Max Wind Speed 12 mph    
Max Gust Speed -    
Visibility 4.0 miles    
Events      
Averages and records for this station are not official NWS values.
T = Trace of Precipitation, MM = Missing Value Source: Averaged Metar Reports

Daily Weather History Graph

Daily Weather History Graph

Search for Another Location

Airport or City:

Trip Planner

Search our weather history database for the weather conditions in past years. The results will help you decide how hot, cold, wet, or windy it might be!

Date:

Astronomy

Mar. 04, 2014 Rise Set
Actual Time 6:06 AM EET 5:47 PM EET
Civil Twilight 5:42 AM EET 6:10 PM EET
Nautical Twilight 5:15 AM EET 6:37 PM EET
Astronomical Twilight 4:48 AM EET 7:04 PM EET
Moon 7:59 AM EET (3/4) 9:09 PM EET (3/4)
Length of Visible Light 12h 27m
Length of Day
11h 41m
Waxing Crescent, 12% of the Moon is Illuminated
Mar 4
Waxing Crescent
Mar 8
First Quarter
Mar 16
Full
Mar 24
Last Quarter
Mar 30
New

Hourly Weather History & Observations

Time (EET) Temp. Dew Point Humidity Pressure Visibility Wind Dir Wind Speed Gust Speed Precip Events Conditions
12:00 AM 69.8 °F 60.8 °F 73% 29.80 in 2.5 mi North 9.2 mph - N/A   Mist
1:00 AM 66.2 °F 55.4 °F 68% 29.80 in 2.5 mi NNW 9.2 mph - N/A   Mist
2:00 AM 67 °F 65 °F 90% 29.83 in 2 mi North 9.2 mph - -   Mist
2:00 AM 66.2 °F 46.4 °F 49% 29.83 in 2.5 mi North 9.2 mph - N/A   Mist
3:00 AM 68.0 °F 62.6 °F 83% 29.83 in 2.5 mi NW 9.2 mph - N/A   Mist
4:00 AM 66.2 °F 60.8 °F 83% 29.80 in 2.5 mi NNW 10.4 mph - N/A   Mist
5:00 AM 64 °F 51 °F 52% 29.83 in 2 mi NNW 9.2 mph - -   Mist
5:00 AM 64.4 °F 50.0 °F 59% 29.83 in 2.5 mi NNW 9.2 mph - N/A   Mist
6:00 AM 64.4 °F 48.2 °F 56% 29.83 in 2.5 mi NNE 4.6 mph - N/A   Haze
7:00 AM 62.6 °F 48.2 °F 59% 29.86 in 3.7 mi North 6.9 mph - N/A   Unknown
8:00 AM 67 °F 49 °F 41% 29.88 in 4 mi NNW 10.4 mph - -  
8:00 AM 68.0 °F 48.2 °F 49% 29.86 in 3.7 mi NNW 10.4 mph - N/A   Unknown
9:00 AM 73.4 °F 46.4 °F 38% 29.86 in 3.7 mi NNW 6.9 mph - N/A   Unknown
10:00 AM 78.8 °F 41.0 °F 26% 29.89 in 3.7 mi NNW 5.8 mph - N/A   Unknown
11:00 AM 83 °F 36 °F 10% 29.91 in 5 mi NW 6.9 mph - -   Haze
11:00 AM 82.4 °F 35.6 °F 19% 29.89 in 5.0 mi NW 6.9 mph - N/A   Unknown
12:00 PM 84.2 °F 35.6 °F 18% 29.86 in 5.0 mi NNW 9.2 mph - N/A   Unknown
1:00 PM 87.8 °F 35.6 °F 16% 29.86 in 5.0 mi NE 9.2 mph - N/A   Unknown
2:00 PM 89 °F 37 °F 8% 29.84 in 5 mi NE 9.2 mph - -   Haze
2:00 PM 89.6 °F 37.4 °F 16% 29.83 in 5.0 mi NE 9.2 mph - N/A   Unknown
3:00 PM 87.8 °F 37.4 °F 17% 29.80 in 5.0 mi NE 10.4 mph - N/A   Unknown
4:00 PM 86.0 °F 37.4 °F 18% 29.80 in 5.0 mi NNE 11.5 mph - N/A   Unknown
5:00 PM 83 °F 45 °F 17% 29.83 in 5 mi NNE 4.6 mph - -   Haze
5:00 PM 82.4 °F 44.6 °F 26% 29.83 in 5.0 mi NNE 4.6 mph - N/A   Unknown
6:00 PM 77.0 °F 46.4 °F 34% 29.83 in 5.0 mi Calm Calm - N/A   Unknown
7:00 PM 75.2 °F 44.6 °F 34% 29.86 in 5.0 mi West 3.5 mph - N/A   Unknown
8:00 PM 73 °F 44 °F 24% 29.89 in 5 mi WNW 4.6 mph - -   Haze
8:00 PM 73.4 °F 44.6 °F 36% 29.89 in 5.0 mi WNW 4.6 mph - N/A   Unknown
9:00 PM 71.6 °F 41.0 °F 33% 29.89 in 5.0 mi SE 3.5 mph - N/A   Unknown
10:00 PM 71.6 °F 41.0 °F 33% 29.89 in - North 4.6 mph - N/A   Clear
11:00 PM 70 °F 39 °F 21% 29.90 in 6 mi Calm Calm - -  
11:00 PM 69.8 °F 39.2 °F 33% 29.89 in - Calm Calm - N/A   Clear